Minchumina, AK

10:43 PM AKDT on May 28, 2017 (GMT -0800)
Minchumina

Weather History for PAMH - November, 2012

Change the Weather History Date:

Sunday, November 18, 2012

  Actual Average Record
Temperature  
Mean Temperature -2 °F -  
Max Temperature 1 °F 10 °F 28 °F (2014)
Min Temperature -4 °F 0 °F -27 °F (2015)
Degree Days  
Heating Degree Days 66    
Moisture  
Dew Point -15 °F    
Average Humidity 52    
Maximum Humidity 60    
Minimum Humidity 46    
Precipitation  
Precipitation 0.00 in - - ()
Sea Level Pressure  
Sea Level Pressure 29.61 in    
Wind  
Wind Speed 6 mph (NNE)    
Max Wind Speed 8 mph    
Max Gust Speed 16 mph    
Visibility 10 miles    
Events      
Averages and records for this station are not official NWS values.
T = Trace of Precipitation, MM = Missing Value Source: NWS Daily Summary

Daily Weather History Graph

Daily Weather History Graph

Search for Another Location

Airport or City:

Trip Planner

Search our weather history database for the weather conditions in past years. The results will help you decide how hot, cold, wet, or windy it might be!

Date:

Astronomy

Nov. 18, 2012 Rise Set
Actual Time 9:47 AM AKST 4:00 PM AKST
Civil Twilight 8:46 AM AKST 5:02 PM AKST
Nautical Twilight 7:44 AM AKST 6:03 PM AKST
Astronomical Twilight 6:48 AM AKST 6:59 PM AKST
Moon 1:48 PM AKST (11/18) 10:12 PM AKST (11/18)
Length of Visible Light 8h 16m
Length of Day
6h 13m
Waxing Crescent, 31% of the Moon is Illuminated
Nov 18
Waxing Crescent
Nov 20
First Quarter
Nov 28
Full
Dec 6
Last Quarter
Dec 12
New

Hourly Weather History & Observations

Time (AKST) Temp. Windchill Dew Point Humidity Pressure Visibility Wind Dir Wind Speed Gust Speed Precip Events Conditions
12:16 AM -0.4 °F -13.4 °F -14.8 °F 51% 29.45 in 10.0 mi NNE 6.9 mph - N/A   Clear
12:36 AM -0.4 °F -13.4 °F -14.8 °F 51% 29.46 in 10.0 mi NNE 6.9 mph - N/A   Clear
12:56 AM -0.4 °F -13.4 °F -13.0 °F 55% 29.45 in 10.0 mi NE 6.9 mph - N/A   Clear
1:16 AM -0.4 °F -13.4 °F -13.0 °F 55% 29.45 in 10.0 mi NNE 6.9 mph - N/A   Clear
1:36 AM -0.4 °F -10.4 °F -13.0 °F 55% 29.45 in 10.0 mi NNE 4.6 mph - N/A   Clear
1:56 AM -0.4 °F -13.4 °F -13.0 °F 55% 29.45 in 10.0 mi NNE 6.9 mph - N/A   Partly Cloudy
2:16 AM -0.4 °F -12.0 °F -13.0 °F 55% 29.45 in 10.0 mi NNE 5.8 mph - N/A   Clear
2:36 AM -0.4 °F -14.7 °F -13.0 °F 55% 29.46 in 10.0 mi NE 8.1 mph - N/A   Scattered Clouds
3:16 AM -0.4 °F -12.0 °F -11.2 °F 60% 29.46 in 10.0 mi NNE 5.8 mph - N/A   Clear
3:36 AM 1.4 °F -11.3 °F -13.0 °F 51% 29.45 in 10.0 mi NE 6.9 mph - N/A   Clear
3:56 AM 1.4 °F -12.5 °F -13.0 °F 51% 29.45 in 10.0 mi NNE 8.1 mph - N/A   Clear
4:16 AM 1.4 °F -11.3 °F -13.0 °F 51% 29.46 in 10.0 mi NNE 6.9 mph - N/A   Clear
4:36 AM 1.4 °F -12.5 °F -13.0 °F 51% 29.46 in 10.0 mi NE 8.1 mph - N/A   Clear
4:56 AM 1.4 °F -11.3 °F -13.0 °F 51% 29.46 in 10.0 mi NE 6.9 mph - N/A   Clear
5:16 AM 1.4 °F -11.3 °F -13.0 °F 51% 29.47 in 10.0 mi NNE 6.9 mph - N/A   Clear
5:36 AM -0.4 °F -12.0 °F -13.0 °F 55% 29.48 in 10.0 mi NNE 5.8 mph - N/A   Clear
5:56 AM 1.4 °F -9.9 °F -13.0 °F 51% 29.49 in 10.0 mi NNE 5.8 mph 16.1 mph N/A   Clear
6:16 AM 1.4 °F -9.9 °F -13.0 °F 51% 29.50 in 10.0 mi NNE 5.8 mph - N/A   Clear
6:36 AM 1.4 °F -12.5 °F -14.8 °F 47% 29.50 in 10.0 mi NNE 8.1 mph - N/A   Clear
6:56 AM 1.4 °F -9.9 °F -13.0 °F 51% 29.51 in 10.0 mi NNE 5.8 mph - N/A   Clear
7:16 AM 1.4 °F -9.9 °F -13.0 °F 51% 29.52 in 10.0 mi NNE 5.8 mph - N/A   Partly Cloudy
7:36 AM 1.4 °F -8.3 °F -14.8 °F 47% 29.53 in 10.0 mi NNE 4.6 mph - N/A   Clear
7:56 AM -0.4 °F -10.4 °F -11.2 °F 60% 29.54 in 10.0 mi NNE 4.6 mph - N/A   Clear
8:16 AM -0.4 °F -13.4 °F -14.8 °F 51% 29.55 in 10.0 mi NNE 6.9 mph - N/A   Clear
8:36 AM -0.4 °F -12.0 °F -14.8 °F 51% 29.55 in 10.0 mi NNE 5.8 mph - N/A   Clear
8:56 AM -0.4 °F -10.4 °F -14.8 °F 51% 29.56 in 10.0 mi NNE 4.6 mph - N/A   Clear
9:16 AM -0.4 °F -12.0 °F -14.8 °F 51% 29.57 in 10.0 mi NNE 5.8 mph - N/A   Clear
9:36 AM -0.4 °F -13.4 °F -14.8 °F 51% 29.58 in 10.0 mi NNE 6.9 mph - N/A   Clear
9:56 AM -0.4 °F -10.4 °F -14.8 °F 51% 29.59 in 10.0 mi NNE 4.6 mph - N/A   Clear
10:16 AM -0.4 °F -14.7 °F -14.8 °F 51% 29.59 in 10.0 mi NNE 8.1 mph - N/A   Clear
10:36 AM -0.4 °F -13.4 °F -14.8 °F 51% 29.60 in 10.0 mi NNE 6.9 mph - N/A   Clear
10:56 AM -0.4 °F -10.4 °F -14.8 °F 51% 29.61 in 10.0 mi NE 4.6 mph - N/A   Clear
11:16 AM 1.4 °F -11.3 °F -14.8 °F 47% 29.62 in 10.0 mi NNE 6.9 mph - N/A   Clear
11:36 AM 1.4 °F -11.3 °F -14.8 °F 47% 29.62 in 10.0 mi NE 6.9 mph - N/A   Clear
11:56 AM 1.4 °F -11.3 °F -14.8 °F 47% 29.64 in 10.0 mi NNE 6.9 mph - N/A   Clear
12:16 PM 1.4 °F -9.9 °F -13.0 °F 51% 29.64 in 10.0 mi NE 5.8 mph - N/A   Clear
12:36 PM -0.4 °F -13.4 °F -13.0 °F 55% 29.64 in 10.0 mi NE 6.9 mph - N/A   Clear
12:56 PM 1.4 °F -11.3 °F -14.8 °F 47% 29.65 in 10.0 mi NE 6.9 mph - N/A   Clear
1:16 PM 1.4 °F -9.9 °F -13.0 °F 51% 29.65 in 10.0 mi NE 5.8 mph - N/A   Clear
1:36 PM 1.4 °F -8.3 °F -14.8 °F 47% 29.66 in 10.0 mi NNE 4.6 mph - N/A   Clear
1:56 PM 1.4 °F -11.3 °F -14.8 °F 47% 29.66 in 10.0 mi NE 6.9 mph - N/A   Clear
2:16 PM -0.4 °F -13.4 °F -14.8 °F 51% 29.67 in 10.0 mi NE 6.9 mph - N/A   Clear
2:36 PM -0.4 °F -13.4 °F -14.8 °F 51% 29.67 in 10.0 mi NE 6.9 mph - N/A   Clear
2:56 PM -0.4 °F -12.0 °F -14.8 °F 51% 29.67 in 10.0 mi NNE 5.8 mph - N/A   Clear
3:16 PM -0.4 °F -10.4 °F -14.8 °F 51% 29.68 in 10.0 mi NNE 4.6 mph - N/A   Clear
3:36 PM -0.4 °F -10.4 °F -14.8 °F 51% 29.68 in 10.0 mi NNE 4.6 mph - N/A   Clear
3:56 PM -0.4 °F -10.4 °F -16.6 °F 46% 29.69 in 10.0 mi NE 4.6 mph - N/A   Clear
4:16 PM -2.2 °F -10.4 °F -16.6 °F 50% 29.70 in 10.0 mi NNE 3.5 mph - N/A   Clear
4:36 PM -2.2 °F -12.5 °F -16.6 °F 50% 29.70 in 10.0 mi NNE 4.6 mph - N/A   Clear
4:56 PM -2.2 °F -12.5 °F -16.6 °F 50% 29.70 in 10.0 mi NNE 4.6 mph - N/A   Clear
5:16 PM -2.2 °F -12.5 °F -16.6 °F 50% 29.71 in 10.0 mi NE 4.6 mph - N/A   Clear
5:36 PM -2.2 °F - -16.6 °F 50% 29.72 in 10.0 mi Calm Calm - N/A   Clear
5:56 PM -2.2 °F -12.5 °F -16.6 °F 50% 29.72 in 10.0 mi NNE 4.6 mph - N/A   Clear
6:16 PM -2.2 °F -12.5 °F -16.6 °F 50% 29.73 in 10.0 mi NE 4.6 mph - N/A   Clear
6:36 PM -2.2 °F -10.4 °F -16.6 °F 50% 29.73 in 10.0 mi NE 3.5 mph - N/A   Mostly Cloudy
6:56 PM -4.0 °F - -16.6 °F 55% 29.73 in 10.0 mi Calm Calm - N/A   Overcast
7:16 PM -4.0 °F -12.4 °F -16.6 °F 55% 29.74 in 10.0 mi NNE 3.5 mph - N/A   Overcast
7:36 PM -4.0 °F -12.4 °F -16.6 °F 55% 29.74 in 10.0 mi NNE 3.5 mph - N/A   Overcast
7:56 PM -4.0 °F -14.6 °F -16.6 °F 55% 29.74 in 10.0 mi NNE 4.6 mph - N/A   Overcast
8:16 PM -4.0 °F -16.3 °F -16.6 °F 55% 29.74 in 10.0 mi NNE 5.8 mph - N/A   Overcast
8:36 PM -4.0 °F -14.6 °F -16.6 °F 55% 29.74 in 10.0 mi NNE 4.6 mph - N/A   Overcast
8:56 PM -4.0 °F - -16.6 °F 55% 29.75 in 10.0 mi Calm Calm - N/A   Overcast
9:16 PM -4.0 °F -14.6 °F -16.6 °F 55% 29.74 in 10.0 mi NNE 4.6 mph - N/A   Overcast
9:36 PM -4.0 °F -12.4 °F -16.6 °F 55% 29.74 in 10.0 mi NNE 3.5 mph - N/A   Overcast
9:56 PM -4.0 °F -12.4 °F -16.6 °F 55% 29.75 in 10.0 mi NNE 3.5 mph - N/A   Overcast
10:16 PM -4.0 °F -12.4 °F -16.6 °F 55% 29.75 in 10.0 mi North 3.5 mph - N/A   Mostly Cloudy
10:36 PM -4.0 °F -12.4 °F -16.6 °F 55% 29.76 in 10.0 mi NNE 3.5 mph - N/A   Mostly Cloudy
10:56 PM -4.0 °F -14.6 °F -14.8 °F 60% 29.76 in 10.0 mi NNE 4.6 mph - N/A   Overcast
11:16 PM -4.0 °F -12.4 °F -14.8 °F 60% 29.76 in 10.0 mi NNE 3.5 mph - N/A   Mostly Cloudy
11:36 PM -2.2 °F -10.4 °F -14.8 °F 55% 29.77 in 10.0 mi NNE 3.5 mph - N/A   Partly Cloudy
11:56 PM -2.2 °F -12.5 °F -14.8 °F 55% 29.76 in 10.0 mi NE 4.6 mph - N/A   Mostly Cloudy